[[{"header":{"parameterUnit":"m.s-1","parameterCategory":1,"la1":30.2991,"la2":30.254,"lo1":-89.0895,"lo2":-89.0444,"dy":0.0017,"dx":0.0017,"nx":28,"ny":28,"refTime":"2023-08-27T09:00:00:Z","depth":0,"parameterNumber":2,"parameterNumberName":"U-component_of_WINDS"},"data":[0,0,0,0,0,0,0,0,0,0,0,0,0,0,0,0,0,0,0,0,0,0,0,0,0,0,0,0,0,0,0,0,0,0,0,0,0,0,0,0,0,0,0,0,0,0,0,0,0,0,0,0,0,0,0,0,0,0,2.0476,2.0477,0,2.0583,2.0584,2.0586,2.0569,2.0568,2.0566,2.0564,2.0677,2.0681,2.0686,0,0,0,0,0,0,0,0,0,0,0,0,0,2.026,2.0264,2.0475,2.0477,2.0478,2.0583,2.0585,2.0586,2.057,2.0567,2.0565,2.0563,2.0675,2.0681,2.0687,0,0,0,0,0,0,0,0,0,0,0,0,0,2.0359,2.0265,2.0475,2.0483,2.0484,2.0583,2.0585,2.0586,2.057,2.0567,2.0565,2.0562,2.0674,2.068,2.0687,2.0786,0,0,2.0709,2.0712,0,0,0,0,0,0,0,0,2.0354,2.0367,2.048,2.0482,2.0484,2.056,2.055,2.0653,2.0571,2.0538,2.0564,2.0561,2.064,2.065,2.0676,2.0791,2.0796,2.071,2.0714,2.0717,2.0719,0,0,0,0,0,0,0,2.0347,2.0363,2.0518,2.0482,2.0485,2.0482,2.0493,2.0569,2.0603,2.054,2.0539,2.0552,2.0641,2.067,2.0679,2.0798,2.0709,2.0716,2.072,2.0723,2.1002,2.1005,0,0,0,0,0,0,2.0337,2.0357,2.0515,2.0521,2.0411,2.0488,2.05,2.0539,2.0602,2.0609,2.0555,2.0551,2.0659,2.0671,2.0683,2.0804,2.0717,2.0723,2.0728,2.0999,2.1003,2.1006,0,0,0,0,0,0,2.0333,2.0352,2.051,2.0439,2.0459,2.0495,2.0538,2.0542,2.0571,2.0613,2.0619,2.0577,2.0657,2.0673,2.0761,2.0808,2.0727,2.0733,2.0995,2.1,2.1005,2.1046,0,0,0,0,0,0,2.0327,2.035,2.0387,2.044,2.0463,2.0585,2.0541,2.0546,2.0582,2.0579,2.0636,2.0643,2.0656,2.075,2.0768,2.0816,2.0739,2.0991,2.0998,2.1003,2.1041,2.1052,2.1061,0,0,0,0,0,2.0319,2.0394,2.0389,2.0408,2.0509,2.0588,2.0601,2.0615,2.0586,2.0624,2.0652,2.0641,2.08,2.076,2.0779,2.083,2.0988,2.0996,2.1003,2.1036,2.105,2.1061,0,0,0,0,0,0,2.0346,2.0401,2.0396,2.049,2.0534,2.0585,2.0633,2.0628,2.0682,2.0677,2.0692,2.0705,2.0794,2.0821,2.0775,2.093,2.089,2.0902,2.0909,2.0922,2.0932,2.0924,2.0745,0,0,0,0,0,2.0362,2.0421,2.0467,2.0545,2.0568,2.0597,2.0632,2.0638,2.0685,2.0704,2.0738,2.0785,2.0846,2.0886,2.0944,2.1045,2.1058,2.109,2.11,2.1108,2.1118,2.1176,2.1191,2.103,2.103,2.103,0,0,2.0398,2.0435,2.0471,2.0552,2.0587,2.0649,2.0613,2.0679,2.0725,2.0715,2.08,2.0827,2.0881,2.0976,2.102,2.1001,2.1166,2.1117,2.1124,2.1129,2.1185,2.12,2.1213,2.1035,2.1034,2.1033,0,0,2.0493,2.0527,2.0597,2.0634,2.0688,2.0707,2.0724,2.0776,2.0794,2.088,2.0874,2.093,2.1034,2.1073,2.1106,2.122,2.1213,2.1239,2.1292,2.1348,2.1361,2.1372,2.1414,2.1429,2.1249,2.1249,2.1249,0,2.0531,2.0622,2.0634,2.0702,2.0739,2.0732,2.0804,2.0839,2.091,2.0936,2.0914,2.1046,2.1081,2.1187,2.1215,2.1242,2.1263,2.1232,2.1358,2.1369,2.138,2.1421,2.1436,2.1252,2.1251,2.1251,2.1251,0,2.0666,2.073,2.078,2.0848,2.0891,2.096,2.0985,2.1027,2.1031,2.1053,2.1142,2.1185,2.1252,2.1278,2.1282,2.1386,2.1372,2.1354,2.1314,2.1398,2.1436,2.1452,2.1256,2.1255,2.1254,2.1253,0,0,2.078,2.0855,2.0874,2.0906,2.0966,2.1016,2.1087,2.1153,2.1189,2.1239,2.1299,2.1389,2.1373,2.1411,2.142,2.1469,2.1559,2.1445,2.1447,2.1466,2.1677,2.1691,2.1708,2.1555,2.1558,2.156,2.1673,0,2.0882,2.1005,2.102,2.113,2.1191,2.1187,2.1248,2.1293,2.1317,2.1372,2.1399,2.1462,2.1436,2.1459,2.1508,2.1538,2.1602,2.153,2.1613,2.1615,2.1599,2.1728,2.1742,2.1846,2.1688,2.1691,2.1692,0,2.1017,2.1071,2.1187,2.1241,2.1267,2.1322,2.1385,2.1438,2.1489,2.1503,2.1547,2.155,2.1626,2.1583,2.1688,2.1639,2.1674,2.1695,2.1699,2.1707,2.1659,2.174,2.188,2.1896,2.1716,2.1714,2.1712,0,2.109,2.1191,2.1274,2.1302,2.1366,2.1406,2.1435,2.1484,2.1523,2.1579,2.1605,2.1669,2.1704,2.1754,2.1775,2.1742,2.188,2.1839,2.1895,2.1894,2.1923,2.1921,2.2071,2.1946,2.1945,2.1945,2.1945,0,2.1203,2.1274,2.1308,2.1359,2.144,2.1458,2.1538,2.1566,2.161,2.1668,2.1669,2.1723,2.1748,2.1807,2.1825,2.191,2.1926,2.194,2.1944,2.194,2.1939,2.1963,2.1957,2.1949,2.1948,2.1948,2.1947,0,2.1297,2.1322,2.1413,2.1468,2.1483,2.1541,2.1588,2.1639,2.1662,2.1736,2.1754,2.1792,2.1862,2.1888,2.1973,2.1985,2.2084,2.2082,2.2066,2.2068,2.2122,2.2117,2.2293,2.2318,2.2176,2.2177,2.2178,0,2.1367,2.1422,2.1483,2.1522,2.1552,2.1614,2.1654,2.1675,2.1717,2.1782,2.1825,2.1895,2.1951,2.2064,2.21,2.2166,2.2166,2.2223,2.2175,2.2171,2.2168,2.2164,2.217,2.2232,2.2233,2.2234,2.2235,0,2.149,2.15,2.1557,2.1621,2.1669,2.172,2.1769,2.1801,2.1829,2.1877,2.1948,2.1992,2.208,2.215,2.2218,2.225,2.2249,2.225,2.2267,2.2263,2.2252,2.226,2.2091,2.2246,2.2245,2.2244,2.2243,2.2243,2.1575,2.1624,2.1675,2.174,2.178,2.1826,2.1877,2.1907,2.1967,2.2039,2.2048,2.2125,2.2178,2.227,2.2305,2.2367,2.2352,2.2375,2.2381,2.2387,2.2391,2.2242,2.2379,2.2379,2.2379,2.2379,2.2378,0,2.1698,2.1731,2.1791,2.186,2.1912,2.1905,2.196,2.2004,2.2071,2.212,2.2177,2.226,2.2328,2.237,2.244,2.2481,2.2482,2.2499,2.2496,2.2504,2.24,2.2379,2.2497,2.2497,2.2497,2.2497,2.2497,2.2497,2.1768,2.1852,2.1869,2.1973,2.2006,2.2081,2.2113,2.2157,2.2197,2.2289,2.2346,2.2373,2.242,2.2493,2.2556,2.2567,2.2593,2.2611,2.2621,2.2523,2.2511,2.2499,2.248,2.2616,2.2616,2.2719,2.272,2.2721]},{"header":{"parameterUnit":"m.s-1","parameterCategory":1,"la1":30.2991,"la2":30.254,"lo1":-89.0895,"lo2":-89.0444,"dy":0.0017,"dx":0.0017,"nx":28,"ny":28,"refTime":"2023-08-27T09:00:00:Z","depth":0,"parameterNumber":3,"parameterNumberName":"V-component_of_WINDS"},"data":[0,0,0,0,0,0,0,0,0,0,0,0,0,0,0,0,0,0,0,0,0,0,0,0,0,0,0,0,0,0,0,0,0,0,0,0,0,0,0,0,0,0,0,0,0,0,0,0,0,0,0,0,0,0,0,0,0,0,0.0972,0.0974,0,0.1122,0.1123,0.1125,0.1139,0.1137,0.1136,0.1134,0.1293,0.1299,0.1305,0,0,0,0,0,0,0,0,0,0,0,0,0,0.0703,0.0708,0.0972,0.0974,0.0976,0.1121,0.1123,0.1126,0.1139,0.1137,0.1135,0.1133,0.1291,0.1298,0.1305,0,0,0,0,0,0,0,0,0,0,0,0,0,0.0833,0.0709,0.0971,0.1,0.1004,0.1121,0.1124,0.1126,0.1139,0.1137,0.1135,0.1132,0.1289,0.1298,0.1306,0.1407,0,0,0.1332,0.1336,0,0,0,0,0,0,0,0,0.0826,0.0843,0.0994,0.0998,0.1003,0.1109,0.1087,0.1221,0.114,0.1088,0.1134,0.1131,0.1234,0.1247,0.1281,0.1415,0.1422,0.1333,0.1338,0.1342,0.1344,0,0,0,0,0,0,0,0.0817,0.0837,0.1031,0.0996,0.1001,0.1007,0.1023,0.1112,0.1173,0.1092,0.1094,0.1111,0.1236,0.1272,0.1285,0.1424,0.1333,0.134,0.1346,0.1349,0.1649,0.1651,0,0,0,0,0,0,0.0802,0.0829,0.1027,0.1036,0.0906,0.1013,0.1031,0.1077,0.1172,0.1184,0.1113,0.1111,0.1259,0.1275,0.129,0.1416,0.1342,0.135,0.1355,0.1646,0.1649,0.1652,0,0,0,0,0,0,0.0796,0.0819,0.102,0.0933,0.0959,0.1021,0.1072,0.1082,0.1118,0.1187,0.1199,0.1138,0.1258,0.1278,0.1378,0.1421,0.1354,0.1362,0.1643,0.1647,0.1651,0.1666,0,0,0,0,0,0,0.0788,0.0817,0.0855,0.0933,0.0963,0.1104,0.1075,0.1086,0.1132,0.1131,0.1214,0.1226,0.1257,0.1365,0.1386,0.1432,0.1368,0.1639,0.1645,0.165,0.1662,0.1671,0.1678,0,0,0,0,0,0.0778,0.0854,0.0857,0.088,0.1012,0.1106,0.1124,0.1157,0.1135,0.1175,0.1219,0.1223,0.1412,0.1375,0.1399,0.1448,0.1637,0.1643,0.1649,0.1659,0.1669,0.1678,0,0,0,0,0,0,0.0782,0.0865,0.0869,0.0972,0.1032,0.1108,0.1159,0.1166,0.1235,0.1231,0.1271,0.129,0.1388,0.1428,0.1384,0.1551,0.1523,0.1534,0.1522,0.1532,0.1539,0.1529,0.1376,0,0,0,0,0,0.0794,0.0862,0.0932,0.1017,0.1046,0.1097,0.114,0.116,0.1224,0.125,0.1302,0.1366,0.144,0.1488,0.156,0.1668,0.1687,0.1713,0.1721,0.1727,0.1737,0.1798,0.181,0.1673,0.1673,0.1673,0,0,0.0821,0.0875,0.0916,0.1019,0.1067,0.1138,0.1119,0.1195,0.1249,0.1262,0.1359,0.1399,0.1473,0.1577,0.1626,0.1614,0.1779,0.1735,0.1739,0.1746,0.1805,0.1818,0.183,0.1677,0.1677,0.1676,0,0,0.0907,0.0954,0.103,0.1078,0.1151,0.1185,0.1203,0.1278,0.1305,0.1402,0.1414,0.1479,0.1605,0.1657,0.17,0.1805,0.1811,0.1827,0.1868,0.1927,0.1938,0.1947,0.1986,0.1999,0.1836,0.1837,0.1837,0,0.0932,0.1038,0.1068,0.1144,0.1189,0.1202,0.128,0.1327,0.142,0.1452,0.1436,0.1594,0.1645,0.1762,0.1787,0.1821,0.1844,0.1819,0.1933,0.1943,0.1953,0.199,0.2004,0.1838,0.1838,0.1838,0.1838,0,0.1066,0.1139,0.1192,0.1279,0.1331,0.1407,0.1451,0.1499,0.1514,0.155,0.1649,0.171,0.1794,0.1823,0.184,0.1943,0.1933,0.1924,0.1897,0.1967,0.2002,0.2017,0.184,0.184,0.1839,0.1839,0,0,0.116,0.1262,0.1281,0.1321,0.1401,0.146,0.1537,0.1618,0.1659,0.1723,0.179,0.1896,0.1888,0.1937,0.1959,0.2011,0.209,0.1996,0.1999,0.2013,0.2209,0.2215,0.2231,0.2094,0.2097,0.2099,0.2203,0,0.1256,0.1392,0.1421,0.1539,0.1608,0.1621,0.1689,0.1746,0.1781,0.1846,0.1886,0.196,0.1944,0.1974,0.2025,0.207,0.213,0.2062,0.2159,0.2162,0.2141,0.2249,0.2257,0.2352,0.2217,0.2219,0.2221,0,0.1386,0.145,0.1575,0.1646,0.1677,0.1737,0.1813,0.1874,0.194,0.1962,0.2016,0.2032,0.2115,0.2081,0.2197,0.215,0.2191,0.2218,0.2223,0.2235,0.2197,0.2265,0.2383,0.2397,0.2243,0.2241,0.2239,0,0.1443,0.1561,0.1651,0.1685,0.177,0.1812,0.185,0.1914,0.196,0.2027,0.2058,0.2134,0.2176,0.2236,0.2273,0.2245,0.2385,0.2355,0.2407,0.2407,0.2438,0.2436,0.2565,0.2462,0.2462,0.2461,0.2461,0,0.1548,0.1624,0.1678,0.1733,0.1819,0.1853,0.1937,0.1975,0.2032,0.2096,0.2112,0.2172,0.2217,0.2284,0.2314,0.2405,0.2424,0.2445,0.2452,0.2444,0.2442,0.2473,0.2468,0.2465,0.2464,0.2464,0.2463,0,0.1627,0.1666,0.1765,0.1837,0.1856,0.1917,0.1979,0.2035,0.2069,0.215,0.2171,0.2226,0.2306,0.2348,0.2448,0.2468,0.2571,0.2574,0.2548,0.2552,0.2602,0.2597,0.2757,0.278,0.266,0.2661,0.2662,0,0.1692,0.175,0.1828,0.1871,0.1909,0.1979,0.2025,0.2061,0.2109,0.2188,0.2234,0.2314,0.238,0.2507,0.2557,0.2634,0.264,0.269,0.2651,0.2642,0.2642,0.2638,0.2645,0.2698,0.2699,0.27,0.27,0,0.1803,0.1819,0.1885,0.1958,0.2013,0.2072,0.2131,0.2166,0.2211,0.2265,0.2346,0.2397,0.2498,0.2578,0.2658,0.2699,0.2708,0.2712,0.2728,0.2722,0.2705,0.2715,0.2568,0.2708,0.2708,0.2707,0.2707,0.2706,0.1878,0.1931,0.1993,0.2066,0.2114,0.2168,0.2224,0.2264,0.2331,0.2415,0.2432,0.2517,0.2583,0.2691,0.2734,0.2802,0.2792,0.2816,0.2822,0.2828,0.283,0.2692,0.2817,0.2817,0.2816,0.2816,0.2816,0,0.1992,0.2032,0.2098,0.2179,0.2237,0.2238,0.2303,0.2352,0.2426,0.2485,0.2549,0.2642,0.2719,0.2774,0.2853,0.2897,0.2903,0.2917,0.2915,0.2924,0.2834,0.2812,0.291,0.291,0.291,0.291,0.291,0.291,0.2057,0.2146,0.217,0.2283,0.2324,0.2406,0.2443,0.2494,0.2541,0.2643,0.2707,0.2741,0.2799,0.2882,0.2953,0.2968,0.2997,0.301,0.3025,0.294,0.293,0.2921,0.2901,0.3016,0.3016,0.311,0.311,0.3111]}]]